Twin Falls, ID

2:52 AM MDT on May 30, 2017 (GMT -0600)
Joslin Field-Magic Valley Regional

Weather History for KTWF - March, 2014

Change the Weather History Date:

Friday, March 14, 2014

  Actual Average Record
Temperature  
Mean Temperature 50 °F -  
Max Temperature 61 °F 53 °F 76 °F (2015)
Min Temperature 38 °F 31 °F 17 °F (2005)
Degree Days  
Heating Degree Days 15 23  
Month to date heating degree days 250 357  
Since 1 July heating degree days 4503 4924  
Cooling Degree Days 0 0  
Month to date cooling degree days 0 0  
Year to date cooling degree days 0 0  
Moisture  
Dew Point 28 °F    
Average Humidity 52    
Maximum Humidity 79    
Minimum Humidity 25    
Precipitation  
Precipitation T in 0.03 in 0.28 in (1993)
Month to date precipitation 1.01 0.35  
Year to date precipitation 3.25 2.14  
Sea Level Pressure  
Sea Level Pressure 30.02 in    
Wind  
Wind Speed 16 mph (SW)    
Max Wind Speed 31 mph    
Max Gust Speed 36 mph    
Visibility 10 miles    
Events Rain    
T = Trace of Precipitation, MM = Missing Value Source: NWS Daily Summary

Daily Weather History Graph

Daily Weather History Graph

Search for Another Location

Airport or City:

Trip Planner

Search our weather history database for the weather conditions in past years. The results will help you decide how hot, cold, wet, or windy it might be!

Date:

Astronomy

Mar. 14, 2014 Rise Set
Actual Time 7:51 AM MDT 7:43 PM MDT
Civil Twilight 7:23 AM MDT 8:11 PM MDT
Nautical Twilight 6:50 AM MDT 8:44 PM MDT
Astronomical Twilight 6:17 AM MDT 9:17 PM MDT
Moon 6:08 PM MDT (3/14) 6:35 AM MDT (3/14)
Length of Visible Light 12h 47m
Length of Day
11h 51m
Waxing Gibbous, 96% of the Moon is Illuminated
Mar 14
Waxing Gibbous
Mar 16
Full
Mar 23
Last Quarter
Mar 30
New
Apr 7
First Quarter

Hourly Weather History & Observations

Time (MDT) Temp. Windchill Dew Point Humidity Pressure Visibility Wind Dir Wind Speed Gust Speed Precip Events Conditions
12:53 AM 39.9 °F 31.8 °F 28.0 °F 63% 29.97 in 10.0 mi South 15.0 mph - N/A   Clear
1:53 AM 42.1 °F 34.5 °F 27.0 °F 55% 29.96 in 10.0 mi South 15.0 mph - N/A   Clear
2:53 AM 39.0 °F 31.4 °F 27.0 °F 62% 29.96 in 10.0 mi South 12.7 mph - N/A   Clear
3:53 AM 39.9 °F 32.1 °F 27.0 °F 60% 29.95 in 10.0 mi South 13.8 mph - N/A   Clear
4:53 AM 39.9 °F 32.1 °F 27.0 °F 60% 29.95 in 10.0 mi South 13.8 mph - N/A   Clear
5:53 AM 39.9 °F 31.4 °F 26.1 °F 58% 29.96 in 10.0 mi South 16.1 mph - N/A   Clear
6:53 AM 41.0 °F 32.8 °F 25.0 °F 53% 29.97 in 10.0 mi South 16.1 mph - N/A   Clear
7:53 AM 41.0 °F 33.9 °F 24.1 °F 51% 29.98 in 10.0 mi South 12.7 mph - N/A   Clear
8:53 AM 44.1 °F 37.4 °F 26.1 °F 49% 29.99 in 10.0 mi South 13.8 mph - N/A   Clear
9:53 AM 50.0 °F - 25.0 °F 38% 30.00 in 10.0 mi SSW 13.8 mph - N/A   Clear
10:53 AM 55.0 °F - 26.1 °F 33% 30.00 in 10.0 mi SSW 10.4 mph - N/A   Partly Cloudy
11:53 AM 60.1 °F - 25.0 °F 26% 29.98 in 10.0 mi West 16.1 mph - N/A   Clear
12:53 PM 61.0 °F - 25.0 °F 25% 29.98 in 10.0 mi West 16.1 mph 25.3 mph N/A   Mostly Cloudy
1:53 PM 57.9 °F - 24.1 °F 27% 29.99 in 10.0 mi West 28.8 mph 34.5 mph N/A   Scattered Clouds
2:53 PM 57.0 °F - 24.1 °F 28% 30.01 in 10.0 mi West 24.2 mph 32.2 mph N/A   Partly Cloudy
3:53 PM 55.0 °F - 27.0 °F 34% 30.02 in 10.0 mi WNW 27.6 mph 32.2 mph N/A   Overcast
4:53 PM 52.0 °F - 30.9 °F 45% 30.06 in 10.0 mi WSW 24.2 mph 33.4 mph N/A   Overcast
5:53 PM 48.9 °F - 33.1 °F 54% 30.09 in 10.0 mi West 20.7 mph 32.2 mph 0.00 in Rain Light Rain
6:53 PM 46.9 °F - 35.1 °F 63% 30.10 in 10.0 mi SW 19.6 mph - 0.00 in   Overcast
7:53 PM 46.0 °F 39.6 °F 35.1 °F 66% 30.13 in 10.0 mi WSW 15.0 mph - N/A   Clear
8:53 PM 42.1 °F 36.1 °F 34.0 °F 73% 30.12 in 10.0 mi South 10.4 mph - N/A   Clear
9:53 PM 42.1 °F 34.9 °F 34.0 °F 73% 30.12 in 10.0 mi South 13.8 mph - N/A   Clear
10:53 PM 39.9 °F 32.5 °F 33.1 °F 77% 30.12 in 10.0 mi SSW 12.7 mph - N/A   Partly Cloudy
11:53 PM 41.0 °F 33.5 °F 32.0 °F 70% 30.12 in 10.0 mi SSW 13.8 mph - N/A   Clear